Regional Weather Roundup
Issued by NWS Jackson, KY

Home | Current Version | Previous Version | Graphics & Text | Print | Product List | Glossary On
Versions: 1 2 3 4 5 6 7 8 9 10 11 12 13 14 15 16 17 18 19 20 21 22 23 24 25 26 27 28 29 30 31 32 33 34 35 36 37 38 39 40 41 42 43 44 45 46 47 48 49 50
000
ASUS43 KJKL 250210
RWRJKL

EAST KENTUCKY HOURLY WEATHER ROUNDUP
NATIONAL WEATHER SERVICE JACKSON KY
1000 PM EDT SUN MAY 24 2015

NOTE: "FAIR" INDICATES FEW OR NO CLOUDS BELOW 12,000 FEET WITH
NO SIGNIFICANT WEATHER AND/OR OBSTRUCTIONS TO VISIBILITY.

* THESE REPORTS ARE NOT UNDER NWS QUALITY CONTROL AND MAY NOT
  REPORT WEATHER SUCH AS PRECIPITATION AND FOG.

KYZ079-080-083-085-087-088-110-112-115-119-120-250300
...EASTERN KENTUCKY...

CITY           SKY/WX    TMP DP  RH WIND       PRES   REMARKS
JACKSON        CLEAR     73  49  42 CALM      30.20R
LONDON         CLEAR     72  49  44 CALM      30.20R
SOMERSET*      CLEAR     68  54  60 SE3       30.18S
MONTICELLO*    CLEAR     73  58  59 S6        30.19F
MIDDLESBORO*   PTCLDY    67  56  68 CALM      30.22R
HARLAN APT*    CLEAR     66  52  59 CALM      30.23R
HAZARD APT*    CLEAR     70  52  52 CALM      30.21R
BLACK MTN*       N/A     63  50  63 E1          N/A
PIKEVILLE APT* CLEAR     75  48  38 S3        30.22R
BIG SANDY*     CLEAR     76  51  42 S5        30.20R
MOREHEAD APT*  CLEAR     73  54  49 S3        30.20R
$$

KYZ035-036-041-042-044-050-067-078-099-250300
...CENTRAL KENTUCKY...

CITY           SKY/WX    TMP DP  RH WIND       PRES   REMARKS
MT STERLING*   CLEAR     70  52  52 S5        30.19R
FLEMING/MASON* CLEAR     72  55  56 S5        30.18R
DANVILLE*      CLEAR     70  54  56 S6        30.18R
RICHMOND*      CLEAR     72  50  46 SE5       30.17R
LEXINGTON      CLEAR     72  53  51 SE7       30.16R
FRANKFORT      CLEAR     74  53  48 S7        30.13S
$$

KYZ091>093-OHZ055-061-077-WVZ005-015-034-035-042-250300
...SOUTHERN OHIO/WEST VIRGINIA...

CITY           SKY/WX    TMP DP  RH WIND       PRES   REMARKS
COVINGTON      PTCLDY    70  53  54 S8        30.12F
COLUMBUS       PTCLDY    75  53  46 S6        30.15R
DAYTON         PTCLDY    76  50  40 S8        30.13S
WILMINGTON     PTCLDY    71  50  47 S5        30.15R
HUNTINGTON     CLEAR     69  57  65 E6        30.16S
CHARLESTON     CLEAR     68  58  70 CALM      30.19R
PINEVILLE*     CLEAR     63  56  80 MISG      30.31R
BECKLEY        CLEAR     67  49  52 SE9       30.30R
BLUEFIELD      PTCLDY    69  49  48 S9G17     30.34R
$$

VAZ002-007-008-TNZ017-027-036-066-071-250300
...SOUTHWEST VIRGINIA/EAST TENNESSEE...

CITY           SKY/WX    TMP DP  RH WIND       PRES   REMARKS
WISE*          CLEAR     70  46  43 S9        30.31R
JONESVILLE*    CLEAR     73  50  43 CALM      30.26R
ABINGDON*      CLEAR     72  49  44 S3        30.30R
BRISTOL        PTCLDY    72  49  44 SE3       30.27R
KNOXVILLE      PTCLDY    74  53  48 S5        30.21R
OAK RIDGE      CLEAR     76  54  46 SW3       30.23R
CROSSVILLE     CLEAR     71  55  56 S6        30.23S
NASHVILLE      CLOUDY    78  64  61 S12       30.12R
$$

...KEY TO REMARKS...
VSB - VISIBILITY IN MILES
WCI - WIND CHILL INDEX
HX  - HEAT INDEX

$$



USA.gov is the U.S. government's official web portal to all federal, state and local government web resources and services.